[[{"header":{"parameterUnit":"m.s-1","parameterCategory":1,"la1":30.2991,"la2":30.254,"lo1":-89.0895,"lo2":-89.0444,"dy":0.0017,"dx":0.0017,"nx":28,"ny":28,"refTime":"2025-09-17T03:00:00:Z","depth":0,"parameterNumber":2,"parameterNumberName":"U-component_of_WINDS"},"data":[0,0,0,0,0,0,0,0,0,0,0,0,0,0,0,0,0,0,0,0,0,0,0,0,0,0,0,0,0,0,0,0,0,0,0,0,0,0,0,0,0,0,0,0,0,0,0,0,0,0,0,0,0,0,0,0,0,0,0.7941,0.7942,0,0.7959,0.7959,0.7959,0.798,0.7981,0.7981,0.7981,0.7998,0.7998,0.7998,0,0,0,0,0,0,0,0,0,0,0,0,0,0.7927,0.7927,0.7941,0.7942,0.7942,0.7959,0.7959,0.7959,0.798,0.7981,0.7981,0.7981,0.7998,0.7998,0.7998,0,0,0,0,0,0,0,0,0,0,0,0,0,0.7938,0.7927,0.7941,0.7954,0.7956,0.7959,0.7959,0.7959,0.798,0.7981,0.7981,0.7982,0.7998,0.7998,0.7998,0.799,0,0,0.7999,0.7999,0,0,0,0,0,0,0,0,0.7937,0.7938,0.7952,0.7953,0.7955,0.7968,0.796,0.7969,0.798,0.7971,0.7981,0.7982,0.7988,0.7989,0.7991,0.799,0.7991,0.7999,0.7999,0.7999,0.7999,0,0,0,0,0,0,0,0.7936,0.7937,0.7948,0.7952,0.7954,0.7959,0.7961,0.7962,0.7976,0.7972,0.7973,0.7975,0.7988,0.7991,0.7991,0.7991,0.7999,0.7999,0.7999,0.7999,0.7985,0.7985,0,0,0,0,0,0,0.7934,0.7937,0.7948,0.7949,0.7947,0.7959,0.7962,0.7963,0.7976,0.7979,0.7975,0.7976,0.799,0.7991,0.7992,0.7982,0.7999,0.8,0.8,0.7986,0.7985,0.7985,0,0,0,0,0,0,0.7933,0.7934,0.7947,0.7943,0.7945,0.7959,0.7961,0.7963,0.7965,0.7978,0.7981,0.7974,0.799,0.7992,0.799,0.7983,0.8,0.8,0.7986,0.7986,0.7985,0.7963,0,0,0,0,0,0,0.7933,0.7934,0.7931,0.7943,0.7945,0.7945,0.796,0.7963,0.7966,0.7968,0.7979,0.7981,0.7991,0.799,0.799,0.7984,0.8,0.7987,0.7986,0.7985,0.7964,0.7962,0.7959,0,0,0,0,0,0.7932,0.7923,0.793,0.7931,0.7941,0.7944,0.7945,0.7957,0.7965,0.7962,0.797,0.7981,0.7984,0.7989,0.799,0.7984,0.7988,0.7986,0.7985,0.7966,0.7962,0.7959,0,0,0,0,0,0,0.7909,0.7925,0.7933,0.7928,0.7935,0.7948,0.7944,0.7953,0.7958,0.7959,0.7974,0.7976,0.7973,0.7978,0.7984,0.7976,0.7988,0.7986,0.7972,0.7969,0.7967,0.7965,0.8,0,0,0,0,0,0.7904,0.7905,0.7919,0.7913,0.7916,0.793,0.7931,0.794,0.7947,0.795,0.7958,0.7965,0.7968,0.7969,0.7972,0.7966,0.7969,0.7962,0.796,0.7957,0.7956,0.7953,0.795,0.7981,0.7981,0.7981,0,0,0.7892,0.7901,0.7901,0.7909,0.7915,0.7916,0.7932,0.7932,0.7932,0.795,0.7949,0.7956,0.7964,0.796,0.7959,0.7965,0.7948,0.7956,0.7954,0.7954,0.7952,0.7949,0.7946,0.798,0.798,0.7981,0,0,0.7871,0.7878,0.7875,0.7881,0.789,0.7899,0.7898,0.791,0.7915,0.7915,0.7928,0.793,0.7934,0.7939,0.7943,0.7926,0.7935,0.7927,0.7912,0.791,0.7907,0.7905,0.7898,0.7896,0.7925,0.7925,0.7925,0,0.7855,0.7857,0.7871,0.7871,0.7874,0.7891,0.7887,0.7892,0.7902,0.7904,0.7911,0.7917,0.7924,0.7922,0.7918,0.792,0.7919,0.7924,0.7906,0.7904,0.7903,0.7896,0.7894,0.7924,0.7924,0.7924,0.7924,0,0.7837,0.7838,0.7834,0.7843,0.7846,0.7844,0.7858,0.786,0.7869,0.7877,0.7877,0.7886,0.7891,0.7892,0.7901,0.7891,0.7894,0.7904,0.7915,0.7898,0.7892,0.789,0.7922,0.7923,0.7923,0.7923,0,0,0.78,0.7819,0.7817,0.7821,0.7834,0.7835,0.7834,0.784,0.784,0.7847,0.7846,0.7851,0.786,0.7864,0.7873,0.7871,0.7856,0.7881,0.7881,0.7875,0.7846,0.7838,0.7835,0.7864,0.7863,0.7863,0.7845,0,0.778,0.7779,0.7793,0.7788,0.7789,0.7806,0.7806,0.7813,0.7822,0.7824,0.7834,0.7836,0.7848,0.785,0.7849,0.7858,0.7851,0.786,0.7862,0.7862,0.7858,0.7832,0.7823,0.7805,0.7843,0.7843,0.7842,0,0.7756,0.7762,0.7757,0.7771,0.7772,0.7771,0.7778,0.778,0.7789,0.7796,0.7801,0.7812,0.7813,0.7825,0.7825,0.7831,0.7833,0.7838,0.7838,0.7837,0.785,0.7829,0.78,0.7797,0.7839,0.7839,0.784,0,0.7728,0.7735,0.7734,0.7737,0.7753,0.7752,0.7758,0.7769,0.7771,0.7778,0.778,0.7786,0.7789,0.7794,0.7807,0.7815,0.7806,0.7819,0.781,0.781,0.7806,0.7806,0.7775,0.781,0.781,0.781,0.781,0,0.7704,0.77,0.7721,0.772,0.7716,0.7733,0.7729,0.7737,0.7746,0.7747,0.7763,0.7764,0.7782,0.7784,0.7795,0.7793,0.7795,0.7799,0.7802,0.7797,0.7796,0.7797,0.7798,0.7809,0.7809,0.781,0.781,0,0.7671,0.7685,0.7684,0.77,0.7704,0.7701,0.7714,0.7714,0.7724,0.7725,0.7726,0.7742,0.7746,0.776,0.7767,0.7774,0.7769,0.7775,0.7765,0.7767,0.7757,0.7757,0.7725,0.7721,0.776,0.7759,0.7759,0,0.7653,0.7651,0.7667,0.7669,0.7674,0.7677,0.7681,0.7697,0.77,0.7712,0.771,0.7715,0.772,0.7726,0.7738,0.7744,0.7749,0.7737,0.775,0.7745,0.7747,0.7746,0.7746,0.7734,0.7733,0.7733,0.7733,0,0.762,0.7628,0.7632,0.7639,0.7643,0.7649,0.7656,0.7657,0.7676,0.7678,0.7683,0.7687,0.7695,0.77,0.7708,0.7715,0.7726,0.7729,0.7727,0.7721,0.7715,0.7717,0.7757,0.7729,0.773,0.773,0.773,0.773,0.7594,0.7592,0.7603,0.7608,0.7616,0.7622,0.7623,0.7634,0.7638,0.7645,0.7656,0.7659,0.7669,0.7682,0.7688,0.7691,0.7697,0.7695,0.7694,0.7692,0.769,0.7717,0.7693,0.7693,0.7693,0.7693,0.7693,0,0.756,0.7569,0.7573,0.7583,0.7587,0.7599,0.7608,0.761,0.7613,0.7622,0.7627,0.7632,0.7638,0.7651,0.7658,0.7657,0.7663,0.7658,0.7658,0.7659,0.7684,0.7684,0.7654,0.7654,0.7654,0.7654,0.7654,0.7654,0.7543,0.7541,0.7551,0.7553,0.7562,0.7566,0.757,0.7576,0.7584,0.7589,0.7594,0.7603,0.7614,0.7622,0.7627,0.7631,0.7632,0.7625,0.7631,0.7654,0.7657,0.7661,0.7661,0.7626,0.7626,0.7605,0.7605,0.7605]},{"header":{"parameterUnit":"m.s-1","parameterCategory":1,"la1":30.2991,"la2":30.254,"lo1":-89.0895,"lo2":-89.0444,"dy":0.0017,"dx":0.0017,"nx":28,"ny":28,"refTime":"2025-09-17T03:00:00:Z","depth":0,"parameterNumber":3,"parameterNumberName":"V-component_of_WINDS"},"data":[0,0,0,0,0,0,0,0,0,0,0,0,0,0,0,0,0,0,0,0,0,0,0,0,0,0,0,0,0,0,0,0,0,0,0,0,0,0,0,0,0,0,0,0,0,0,0,0,0,0,0,0,0,0,0,0,0,0,-1.8865,-1.8865,0,-1.8846,-1.8846,-1.8846,-1.8829,-1.8829,-1.8829,-1.8828,-1.8806,-1.8805,-1.8805,0,0,0,0,0,0,0,0,0,0,0,0,0,-1.8886,-1.8885,-1.8865,-1.8865,-1.8865,-1.8846,-1.8846,-1.8846,-1.8829,-1.8829,-1.8829,-1.8828,-1.8806,-1.8805,-1.8805,0,0,0,0,0,0,0,0,0,0,0,0,0,-1.8873,-1.8885,-1.8865,-1.8854,-1.8853,-1.8846,-1.8846,-1.8846,-1.8829,-1.8829,-1.8829,-1.8828,-1.8806,-1.8805,-1.8805,-1.8806,0,0,-1.8803,-1.8802,0,0,0,0,0,0,0,0,-1.8873,-1.8872,-1.8856,-1.8855,-1.8854,-1.884,-1.8845,-1.8832,-1.8829,-1.8838,-1.8828,-1.8828,-1.8817,-1.8815,-1.8812,-1.8805,-1.8804,-1.8803,-1.8802,-1.8802,-1.8802,0,0,0,0,0,0,0,-1.8874,-1.8873,-1.8858,-1.8856,-1.8854,-1.885,-1.8848,-1.8842,-1.8829,-1.8837,-1.8836,-1.8834,-1.8816,-1.8813,-1.8812,-1.8804,-1.8803,-1.8802,-1.8802,-1.8801,-1.8799,-1.8799,0,0,0,0,0,0,-1.8877,-1.8874,-1.8858,-1.8857,-1.8863,-1.885,-1.8847,-1.8844,-1.8829,-1.8827,-1.8834,-1.8833,-1.8814,-1.8812,-1.8811,-1.8813,-1.8802,-1.8801,-1.8801,-1.8799,-1.8799,-1.8799,0,0,0,0,0,0,-1.8878,-1.8876,-1.8859,-1.8865,-1.8862,-1.885,-1.8847,-1.8844,-1.8841,-1.8827,-1.8824,-1.8834,-1.8814,-1.8812,-1.8808,-1.8812,-1.8801,-1.88,-1.8798,-1.8799,-1.8799,-1.8817,0,0,0,0,0,0,-1.8878,-1.8876,-1.8877,-1.8865,-1.8862,-1.8857,-1.8847,-1.8844,-1.884,-1.8839,-1.8826,-1.8823,-1.8814,-1.8809,-1.8808,-1.8811,-1.88,-1.8798,-1.8799,-1.8799,-1.8816,-1.8818,-1.8819,0,0,0,0,0,-1.8879,-1.8881,-1.8877,-1.8875,-1.8863,-1.8857,-1.8855,-1.8845,-1.8841,-1.8841,-1.8833,-1.8824,-1.8812,-1.8809,-1.8807,-1.881,-1.8798,-1.8798,-1.8799,-1.8815,-1.8817,-1.8819,0,0,0,0,0,0,-1.8892,-1.8879,-1.8875,-1.8873,-1.8867,-1.8854,-1.8855,-1.8848,-1.8842,-1.884,-1.8827,-1.8824,-1.8823,-1.8816,-1.8813,-1.8812,-1.8804,-1.8804,-1.8816,-1.8819,-1.882,-1.8822,-1.8799,0,0,0,0,0,-1.8895,-1.8892,-1.8881,-1.8881,-1.8878,-1.8867,-1.8864,-1.8857,-1.885,-1.8846,-1.8837,-1.883,-1.8824,-1.8821,-1.8815,-1.8815,-1.8812,-1.8816,-1.8818,-1.882,-1.882,-1.8821,-1.8823,-1.8802,-1.8802,-1.8802,0,0,-1.89,-1.8893,-1.8892,-1.8883,-1.8877,-1.8875,-1.8865,-1.8862,-1.886,-1.8845,-1.8842,-1.8836,-1.8826,-1.8825,-1.8824,-1.8819,-1.8826,-1.8821,-1.8822,-1.8821,-1.8822,-1.8824,-1.8826,-1.8802,-1.8802,-1.8802,0,0,-1.8909,-1.8903,-1.8903,-1.8898,-1.889,-1.8884,-1.8884,-1.8873,-1.8869,-1.8866,-1.8856,-1.8853,-1.8844,-1.8838,-1.8834,-1.8844,-1.8836,-1.8842,-1.8852,-1.8853,-1.8855,-1.8856,-1.8861,-1.8863,-1.8843,-1.8843,-1.8843,0,-1.8916,-1.8913,-1.8903,-1.8902,-1.8899,-1.8888,-1.8889,-1.8884,-1.8874,-1.8872,-1.8868,-1.8858,-1.885,-1.8849,-1.8851,-1.8848,-1.8848,-1.8843,-1.8856,-1.8857,-1.8858,-1.8863,-1.8864,-1.8844,-1.8844,-1.8844,-1.8843,0,-1.8923,-1.8921,-1.8921,-1.8915,-1.8912,-1.8911,-1.8902,-1.89,-1.8894,-1.8888,-1.8886,-1.8877,-1.8871,-1.887,-1.8862,-1.8867,-1.8865,-1.8858,-1.885,-1.8861,-1.8865,-1.8867,-1.8845,-1.8845,-1.8844,-1.8844,0,0,-1.8937,-1.8927,-1.8928,-1.8926,-1.8918,-1.8916,-1.8915,-1.891,-1.891,-1.8904,-1.8903,-1.8897,-1.8892,-1.8887,-1.888,-1.8881,-1.8891,-1.8874,-1.8874,-1.8879,-1.8898,-1.8904,-1.8906,-1.8886,-1.8886,-1.8887,-1.8899,0,-1.8945,-1.8944,-1.8938,-1.8939,-1.8938,-1.8929,-1.8928,-1.8923,-1.8918,-1.8916,-1.891,-1.8906,-1.8899,-1.8896,-1.8897,-1.889,-1.8895,-1.8889,-1.8886,-1.8886,-1.8889,-1.8908,-1.8913,-1.8925,-1.8901,-1.8901,-1.8901,0,-1.8953,-1.8951,-1.8953,-1.8947,-1.8946,-1.8946,-1.8943,-1.8941,-1.8935,-1.8931,-1.8928,-1.8921,-1.892,-1.8912,-1.8912,-1.8908,-1.8906,-1.8903,-1.8903,-1.8903,-1.8894,-1.8908,-1.8928,-1.8931,-1.8903,-1.8903,-1.8903,0,-1.8965,-1.8962,-1.8963,-1.8961,-1.8954,-1.8955,-1.8952,-1.8946,-1.8945,-1.8941,-1.8941,-1.8936,-1.8934,-1.8931,-1.8923,-1.8918,-1.8924,-1.8915,-1.8922,-1.8922,-1.8923,-1.8923,-1.8944,-1.8921,-1.8921,-1.8921,-1.8921,0,-1.8975,-1.8976,-1.8969,-1.8969,-1.8972,-1.8964,-1.8966,-1.8962,-1.8958,-1.8958,-1.895,-1.895,-1.8939,-1.8938,-1.8931,-1.8933,-1.8932,-1.8929,-1.8927,-1.893,-1.893,-1.8929,-1.8928,-1.8921,-1.8921,-1.8921,-1.8921,0,-1.8987,-1.8982,-1.8984,-1.8978,-1.8977,-1.8979,-1.8974,-1.8975,-1.897,-1.897,-1.897,-1.8962,-1.8961,-1.8953,-1.8949,-1.8945,-1.8949,-1.8945,-1.8951,-1.895,-1.8957,-1.8957,-1.8978,-1.8981,-1.8956,-1.8956,-1.8956,0,-1.8994,-1.8996,-1.8992,-1.8992,-1.899,-1.899,-1.8989,-1.8982,-1.8982,-1.8978,-1.8979,-1.8978,-1.8976,-1.8974,-1.8968,-1.8966,-1.8962,-1.897,-1.8962,-1.8965,-1.8964,-1.8964,-1.8965,-1.8972,-1.8972,-1.8972,-1.8972,0,-1.9007,-1.9005,-1.9005,-1.9005,-1.9005,-1.9003,-1.9002,-1.9002,-1.8995,-1.8995,-1.8995,-1.8994,-1.8991,-1.899,-1.8987,-1.8984,-1.8977,-1.8975,-1.8977,-1.898,-1.8984,-1.8983,-1.8957,-1.8975,-1.8974,-1.8974,-1.8974,-1.8974,-1.9017,-1.9019,-1.9018,-1.9018,-1.9017,-1.9016,-1.9018,-1.9015,-1.9015,-1.9013,-1.9009,-1.901,-1.9007,-1.9003,-1.9,-1.9001,-1.8996,-1.8998,-1.8999,-1.8999,-1.9002,-1.8984,-1.9,-1.9,-1.9,-1.9,-1.8999,0,-1.903,-1.903,-1.903,-1.903,-1.9031,-1.9027,-1.9025,-1.9026,-1.9028,-1.9026,-1.9026,-1.9026,-1.9026,-1.9021,-1.902,-1.9022,-1.9019,-1.9022,-1.9022,-1.9021,-1.9004,-1.9004,-1.9024,-1.9024,-1.9024,-1.9024,-1.9024,-1.9024,-1.9037,-1.9041,-1.904,-1.9043,-1.9042,-1.9044,-1.9044,-1.9044,-1.9043,-1.9045,-1.9046,-1.9043,-1.904,-1.904,-1.904,-1.9038,-1.9039,-1.9043,-1.904,-1.9025,-1.9022,-1.902,-1.9019,-1.9043,-1.9043,-1.9057,-1.9058,-1.9058]}]]